#timestamp,LO_Frequency,Hit,StdDev 
1623722415.7,286047001.8,P
1623722435.6,286047002.7,P
1623722455.4,286047001.6,N
1623722475.2,286047002.0,Y
1623722495.1,286047000.0,P
1623722496.0,286047000.0,N
1623722515.8,286047000.2,N
1623722535.7,286047002.8,Y
1623722555.5,286046998.7,P
1623722575.3,286046997.5,N
1623722595.2,286046995.7,P
1623722615.0,286046994.1,Y
1623722615.9,286046994.1,P
1623722635.7,286046995.2,N
1623722655.6,286046996.2,N
1623722675.4,286046996.0,N
1623722695.3,286046995.8,Y
1623722715.1,286047000.3,P
1623722716.0,286047000.3,N
1623722735.8,286047002.8,N
1623722755.7,286047000.0,N
1623722775.5,286047000.3,N
1623722795.4,286047000.1,N
1623722815.2,286046999.7,N
1623722835.0,286047000.1,N
1623722835.9,286047000.1,N
1623722855.8,286047000.6,N
1623722875.6,286047000.2,N
1623722895.4,286046999.7,N
1623722915.3,286047001.9,N
1623722935.1,286047002.6,N
1623722955.9,286047002.2,N
1623722975.7,286047001.9,N
1623722995.5,286047002.6,N
1623723015.4,286047000.5,N
1623723035.2,286047000.1,N
1623723055.1,286046999.8,N
1623723056.0,286046999.8,N
1623723075.8,286047002.7,N
1623723095.6,286047000.6,N
1623723115.5,286046998.4,N
1623723135.3,286046998.8,N
1623723155.1,286046996.9,N
1623723175.9,286046997.2,N
1623723195.7,286046996.6,N
1623723215.6,286046997.0,N
1623723235.4,286046999.1,N
1623723255.2,286046998.6,N
1623723275.1,286046998.5,N
1623723276.0,286046998.5,N
1623723295.8,286046998.1,N
1623723315.7,286047001.0,N
1623723335.5,286047000.7,N
1623723355.3,286047000.9,N
1623723375.2,286046998.5,N
1623723395.0,286046999.4,N
1623723395.9,286046999.4,N
1623723415.7,286046996.5,N
1623723435.6,286046997.8,N
1623723455.4,286046995.2,N
1623723475.3,286046995.2,N
1623723495.1,286046997.9,N
1623723496.0,286046997.9,N
1623723515.8,286046995.4,N
1623723535.7,286046996.2,N
1623723555.5,286046993.6,Y
1623723575.3,286046993.7,P
1623723595.2,286046993.7,N
1623723615.0,286046993.5,N
1623723615.9,286046993.5,Y
1623723635.8,286046999.0,P
1623723655.6,286047001.1,N
1623723675.4,286047000.7,N
1623723695.3,286047000.4,N
1623723745.1,286047001.3,E
1623723755.1,286046999.9,N
1623723756.0,286046999.9,P
1623723775.8,286047004.3,P
1623723795.7,286047004.4,N
1623723815.6,286047002.3,N
1623723835.4,286047003.3,N
1623723855.2,286047003.9,N
1623723875.1,286047004.4,N
1623723876.0,286047004.4,N
1623723895.8,286047002.4,N
1623723915.7,286046999.9,N
1623723935.5,286047000.0,N
1623723955.3,286047000.1,N
1623723975.2,286047002.8,N
1623723995.0,286047002.4,N
1623723995.9,286047002.4,N
1623724015.7,286046999.8,N
1623724035.6,286047000.9,N
1623724055.4,286046998.1,N
1623724075.3,286047000.9,N
1623724095.1,286047001.1,N
1623724115.8,286047001.2,N
1623724135.7,286047002.7,N
1623724155.5,286047002.7,N
1623724175.4,286047002.2,N
1623724195.2,286046999.7,N
1623724215.0,286047002.2,N
1623724215.9,286047002.2,N
1623724235.8,286046999.7,N
1623724255.6,286047002.6,N
1623724275.4,286046999.7,N
1623724295.3,286047000.2,N
1623724315.1,286047002.0,N
1623724335.9,286047004.0,N
1623724355.7,286047003.8,N
1623724375.5,286047002.7,N
1623724395.4,286047002.8,N
1623724445.2,286047003.8,E
1623724455.2,286047002.8,N
1623724475.0,286046997.0,P
1623724475.9,286046997.0,N
1623724495.7,286046997.0,N
1623724515.6,286047000.5,N
1623724535.4,286047001.2,N
1623724555.3,286047000.9,N
1623724575.1,286047000.7,N
1623724595.8,286046998.3,N
1623724615.7,286046999.0,N
1623724635.5,286046999.3,N
1623724655.4,286046998.3,N
1623724675.2,286047000.0,N
1623724695.0,286046998.7,N
1623724695.9,286046998.7,N
1623724715.8,286046999.2,N
1623724735.6,286047001.2,N
1623724755.4,286047000.4,N
1623724775.3,286047002.1,N
1623724795.1,286047000.9,N
1623724815.9,286047000.8,N
1623724835.7,286047000.1,N
1623724855.5,286047002.2,N
1623724875.4,286047000.0,N
1623724895.2,286047000.2,N
1623724915.1,286047000.3,N
1623724916.0,286047000.3,N
1623724935.8,286047001.1,N
1623724955.6,286047000.3,N
1623724975.5,286047000.0,N
1623724995.3,286047002.1,N
1623725015.2,286047001.8,N
1623725035.9,286046999.7,N
1623725055.7,286047002.6,N
1623725075.6,286047001.5,N
1623725095.4,286047002.8,N
1623725115.2,286047000.8,N
1623725135.1,286046998.3,N
1623725136.0,286046998.3,N
1623725155.8,286046999.3,N
1623725175.7,286047000.7,N
1623725195.5,286047002.5,N
1623725215.3,286047001.6,N
1623725235.2,286047001.5,N
1623725255.9,286047001.3,N
1623725275.7,286047001.7,N
1623725295.6,286047004.1,Y
1623725315.4,286047002.3,P
1623725335.3,286047002.7,P
1623725355.1,286047002.2,N
1623725356.0,286047002.2,Y
1623725375.8,286046998.4,P
1623725395.7,286046998.8,N
1623725415.5,286047000.3,N
1623725435.3,286046998.7,N
1623725455.2,286046998.6,N
1623725475.0,286047000.7,N
1623725475.9,286047000.7,N
1623725495.8,286047000.4,N
1623725515.6,286047000.6,N
1623725535.4,286047000.7,N
1623725555.3,286047000.5,N
1623725575.1,286046998.2,N
1623725595.8,286047000.4,N
1623725615.7,286046999.9,N
1623725635.5,286047000.5,N
1623725655.4,286047001.9,N
1623725675.2,286047000.5,N
1623725695.0,286047000.5,N
1623725695.9,286047000.5,N
1623725715.8,286047002.8,N
1623725735.6,286047002.0,N
1623725755.4,286047002.2,N
1623725775.3,286047002.2,N
1623725795.1,286047000.2,N
1623725815.9,286047000.4,N
1623725835.7,286046996.6,N
1623725855.5,286046996.8,N
1623725875.4,286046999.5,N
1623725895.2,286047000.8,N
1623725915.0,286046998.1,N
1623725915.9,286046998.1,N
1623725935.8,286046999.6,N
1623725955.6,286046998.6,N
1623725975.4,286046999.3,N
1623725995.3,286046998.4,N
